K4VI Weather Reports


Display with metric or nautical units.
time (UTC)temp
F
wind
direction
speed
MPH
gust
MPH
rain 1hr
in
rain 24hr
in
rain mn
in
humidity
%
barometer
mb
20260503200003 56 266 5.0 11.0 0.00 0.00 0.00 23 1033.0
20260503195718 57 284 4.0 11.0 0.00 0.00 0.00 23 1033.0
20260503195003 56 282 3.0 8.0 0.00 0.00 0.00 25 1033.1
20260503194719 55 276 3.0 7.0 0.00 0.00 0.00 25 1033.1
20260503194003 56 235 3.0 9.0 0.00 0.00 0.00 24 1033.3
20260503193503 55 238 4.0 13.0 0.00 0.00 0.00 26 1033.1
20260503193003 55 258 5.0 13.0 0.00 0.00 0.00 25 1033.3
20260503192721 56 258 6.0 15.0 0.00 0.00 0.00 24 1033.3
20260503192003 55 262 5.0 15.0 0.00 0.00 0.00 27 1033.5
20260503191503 55 252 4.0 15.0 0.00 0.00 0.00 26 1033.6
20260503191003 56 257 5.0 11.0 0.00 0.00 0.00 26 1033.4
20260503190718 55 268 6.0 13.0 0.00 0.00 0.00 27 1033.5
20260503190003 55 263 7.0 15.0 0.00 0.00 0.00 26 1033.7
20260503185503 55 254 5.0 15.0 0.00 0.00 0.00 25 1033.8
20260503185217 56 217 5.0 13.0 0.00 0.00 0.00 27 1033.9
20260503184720 55 185 4.0 12.0 0.00 0.00 0.00 27 1033.9
20260503184003 54 268 3.0 14.0 0.00 0.00 0.00 28 1034.3
20260503183721 54 284 4.0 14.0 0.00 0.00 0.00 28 1034.3
20260503183003 52 279 5.0 11.0 0.00 0.00 0.00 30 1034.4
20260503182503 52 280 5.0 13.0 0.00 0.00 0.00 30 1034.6
20260503182220 52 269 4.0 13.0 0.00 0.00 0.00 30 1034.7
20260503181504 51 237 3.0 10.0 0.00 0.00 0.00 31 1034.8
20260503181003 51 261 5.0 13.0 0.00 0.00 0.00 31 1034.8
20260503180503 51 268 5.0 13.0 0.00 0.00 0.00 29 1034.9
20260503180221 51 258 5.0 11.0 0.00 0.00 0.00 30 1034.9
20260503175503 51 264 5.0 13.0 0.00 0.00 0.00 30 1035.0
20260503175217 51 262 5.0 13.0 0.00 0.00 0.00 30 1034.9
20260503174503 51 266 5.0 12.0 0.00 0.00 0.00 30 1035.0
20260503174003 50 264 5.0 12.0 0.00 0.00 0.00 30 1035.1
20260503173503 50 259 5.0 12.0 0.00 0.00 0.00 30 1035.2
20260503173003 50 275 6.0 13.0 0.00 0.00 0.00 30 1035.2
20260503172717 50 276 6.0 13.0 0.00 0.00 0.00 30 1035.3
20260503172220 51 258 5.0 12.0 0.00 0.00 0.00 30 1035.4
20260503171503 50 278 6.0 12.0 0.00 0.00 0.00 30 1035.5
20260503171221 50 287 6.0 12.0 0.00 0.00 0.00 30 1035.5
20260503170503 50 246 5.0 12.0 0.00 0.00 0.00 31 1035.6
20260503151003 47 307 3.0 8.0 0.00 0.00 0.00 37 1036.1
20260503150503 47 312 3.0 9.0 0.00 0.00 0.00 37 1036.1
20260503140219 44 301 2.0 4.0 0.00 0.00 0.00 40 1036.0
20260503131003 42 322 4.0 9.0 0.00 0.00 0.00 42 1035.8
20260503130503 42 323 3.0 8.0 0.00 0.00 0.00 42 1035.8
20260503110503 40 3 0.0 2.0 0.00 0.00 0.00 44 1035.4
20260503090503 42 324 3.0 6.0 0.00 0.00 0.00 43 1035.8
20260503081003 39 326 1.0 3.0 0.00 0.00 0.00 46 1036.0
20260503080503 39 333 1.0 4.0 0.00 0.00 0.00 47 1036.0
20260503072503 38 328 1.0 5.0 0.00 0.00 0.00 46 1036.3
20260503072003 38 333 1.0 4.0 0.00 0.00 0.00 45 1036.2
20260503071503 38 331 0.0 1.0 0.00 0.00 0.00 45 1036.2
20260503071003 38 330 0.0 2.0 0.00 0.00 0.00 45 1036.3
20260503070504 38 330 0.0 2.0 0.00 0.00 0.00 45 1036.2
20260503060219 42 346 2.0 4.0 0.00 0.00 0.00 38 1036.3
20260503055003 42 317 1.0 3.0 0.00 0.00 0.00 34 1036.3
20260503054503 42 321 1.0 3.0 0.00 0.00 0.00 34 1036.2
20260503054003 42 327 1.0 3.0 0.00 0.00 0.00 34 1036.3
20260503053503 42 329 1.0 3.0 0.00 0.00 0.00 34 1036.2
20260503053003 42 325 1.0 4.0 0.00 0.00 0.00 36 1036.2
20260503052720 41 323 1.0 4.0 0.00 0.00 0.00 36 1036.1
20260503052003 40 318 1.0 3.0 0.00 0.00 0.00 41 1036.3
20260503051503 40 330 1.0 3.0 0.00 0.00 0.00 37 1036.1
20260503051003 39 337 1.0 3.0 0.00 0.00 0.00 41 1036.2
20260503050503 39 344 0.0 1.0 0.00 0.00 0.00 39 1036.2
20260503050220 39 344 0.0 1.0 0.00 0.00 0.00 41 1036.2
20260503045503 39 344 0.0 1.0 0.00 0.00 0.00 42 1036.3
20260503045003 40 344 0.0 1.0 0.00 0.00 0.00 40 1036.3
20260503044503 40 344 0.0 1.0 0.00 0.00 0.00 40 1036.3
20260503044216 40 344 0.0 1.0 0.00 0.00 0.00 40 1036.3
20260503043503 40 344 0.0 1.0 0.00 0.00 0.00 41 1036.4
20260503043003 40 344 0.0 1.0 0.00 0.00 0.00 42 1036.3
20260503042504 40 344 0.0 1.0 0.00 0.00 0.00 41 1036.4
20260503042003 40 344 0.0 1.0 0.00 0.00 0.00 44 1036.4
20260503041503 40 344 0.0 1.0 0.00 0.00 0.00 46 1036.4
20260503041003 40 344 0.0 1.0 0.00 0.00 0.00 46 1036.4
20260503040503 40 345 0.0 1.0 0.00 0.00 0.00 46 1036.3
20260503040003 40 345 0.0 1.0 0.00 0.00 0.00 46 1036.3
20260503035503 40 344 0.0 2.0 0.00 0.00 0.00 46 1036.1
20260503035003 40 344 0.0 2.0 0.00 0.00 0.00 46 1036.2
20260503034503 40 344 0.0 1.0 0.00 0.00 0.00 46 1036.2
20260503034217 40 344 0.0 1.0 0.00 0.00 0.00 47 1036.1
20260503033503 40 334 0.0 2.0 0.00 0.00 0.00 45 1036.1
20260503033003 40 331 0.0 2.0 0.00 0.00 0.00 43 1036.1
20260503032503 40 326 0.0 2.0 0.00 0.00 0.00 44 1036.2
20260503032003 41 326 0.0 1.0 0.00 0.00 0.00 44 1036.1
20260503031504 41 326 0.0 1.0 0.00 0.00 0.00 43 1036.0
20260503031004 42 326 0.0 1.0 0.00 0.00 0.00 41 1036.0
20260503030503 42 327 0.0 1.0 0.00 0.00 0.00 40 1035.9
20260503030003 42 327 0.0 1.0 0.00 0.00 0.00 39 1035.8
20260503025503 43 327 0.0 1.0 0.00 0.00 0.00 39 1035.8
20260503025003 44 326 0.0 5.0 0.00 0.00 0.00 37 1035.7
20260503024503 45 337 0.0 5.0 0.00 0.00 0.00 37 1035.6
20260503024003 46 355 0.0 2.0 0.00 0.00 0.00 34 1035.6
20260503023503 46 355 0.0 2.0 0.00 0.00 0.00 31 1035.6
20260503023004 46 355 0.0 2.0 0.00 0.00 0.00 31 1035.6
20260503022717 47 355 0.0 2.0 0.00 0.00 0.00 32 1035.6
20260503022003 47 340 0.0 3.0 0.00 0.00 0.00 31 1035.6
20260503021503 48 93 1.0 4.0 0.00 0.00 0.00 30 1035.6
20260503021003 48 107 2.0 7.0 0.00 0.00 0.00 28 1035.6
20260503020719 48 107 2.0 7.0 0.00 0.00 0.00 29 1035.6
20260503020003 48 107 2.0 4.0 0.00 0.00 0.00 33 1035.5
20260503015503 48 111 3.0 4.0 0.00 0.00 0.00 34 1035.4
20260503015003 49 112 3.0 8.0 0.00 0.00 0.00 34 1035.4
20260503014720 49 115 3.0 8.0 0.00 0.00 0.00 34 1035.4
20260503014219 49 131 3.0 8.0 0.00 0.00 0.00 33 1035.3
20260503013503 50 148 2.0 5.0 0.00 0.00 0.00 32 1035.3
20260503013003 50 132 2.0 5.0 0.00 0.00 0.00 32 1035.3
20260503012717 50 125 2.0 5.0 0.00 0.00 0.00 32 1035.2
20260503012003 51 107 2.0 6.0 0.00 0.00 0.00 27 1035.2
20260503011718 51 109 3.0 8.0 0.00 0.00 0.00 28 1035.2
20260503011221 52 113 4.0 8.0 0.00 0.00 0.00 26 1035.2
20260503010719 52 114 4.0 7.0 0.00 0.00 0.00 25 1035.1
20260503010003 53 113 4.0 7.0 0.00 0.00 0.00 25 1035.1
20260503005503 53 119 4.0 7.0 0.00 0.00 0.00 24 1035.0
20260503005003 53 117 4.0 9.0 0.00 0.00 0.00 24 1035.0
20260503004503 53 112 5.0 9.0 0.00 0.00 0.00 24 1035.0
20260503004003 53 111 6.0 11.0 0.00 0.00 0.00 24 1035.0
20260503003503 54 111 6.0 11.0 0.00 0.00 0.00 24 1035.0
20260503003004 54 118 5.0 10.0 0.00 0.00 0.00 24 1035.1
20260503002504 54 118 5.0 11.0 0.00 0.00 0.00 24 1035.1
20260503002003 54 109 5.0 11.0 0.00 0.00 0.00 24 1035.1
20260503001503 54 114 5.0 10.0 0.00 0.00 0.00 24 1035.2
20260503001217 54 113 5.0 10.0 0.00 0.00 0.00 24 1035.2
20260503000504 54 110 6.0 13.0 0.00 0.00 0.00 23 1035.2
20260503000003 55 119 6.0 13.0 0.00 0.00 0.00 23 1035.2
20260502235503 55 124 5.0 10.0 0.00 0.00 0.00 22 1035.2
20260502235003 55 117 5.0 10.0 0.00 0.00 0.00 24 1035.3
20260502234503 55 112 5.0 13.0 0.00 0.00 0.00 24 1035.3
20260502234003 55 117 5.0 13.0 0.00 0.00 0.00 22 1035.3
20260502233503 56 129 5.0 11.0 0.00 0.00 0.00 23 1035.3
20260502233003 55 117 5.0 13.0 0.00 0.00 0.00 23 1035.3
20260502232718 55 109 6.0 13.0 0.00 0.00 0.00 24 1035.3
20260502232221 55 105 6.0 16.0 0.00 0.00 0.00 23 1035.3
20260502231503 55 103 4.0 18.0 0.00 0.00 0.00 23 1035.3
20260502231217 55 106 5.0 18.0 0.00 0.00 0.00 24 1035.3
20260502230503 54 106 6.0 13.0 0.00 0.00 0.00 26 1035.4
20260502230231 54 107 6.0 13.0 0.00 0.00 0.00 25 1035.4
20260502225503 55 119 6.0 12.0 0.00 0.00 0.00 23 1035.4
20260502225219 55 119 5.0 15.0 0.00 0.00 0.00 23 1035.4
20260502224503 55 108 6.0 16.0 0.00 0.00 0.00 23 1035.4
20260502224003 56 124 3.0 10.0 0.00 0.00 0.00 23 1035.4
20260502223503 56 141 3.0 7.0 0.00 0.00 0.00 22 1035.5
20260502223003 55 116 4.0 11.0 0.00 0.00 0.00 22 1035.6
20260502222503 56 119 5.0 11.0 0.00 0.00 0.00 21 1035.7
20260502222003 56 129 5.0 15.0 0.00 0.00 0.00 23 1035.6
20260502221720 56 134 5.0 15.0 0.00 0.00 0.00 22 1035.8
20260502221003 55 122 6.0 15.0 0.00 0.00 0.00 22 1035.8
20260502220503 55 118 6.0 14.0 0.00 0.00 0.00 23 1035.8
20260502220219 55 120 5.0 14.0 0.00 0.00 0.00 24 1035.8
20260502215503 55 128 5.0 11.0 0.00 0.00 0.00 24 1036.0
20260502215003 55 127 6.0 14.0 0.00 0.00 0.00 23 1036.0
20260502214503 55 144 5.0 14.0 0.00 0.00 0.00 24 1036.0
20260502214003 55 152 4.0 10.0 0.00 0.00 0.00 22 1036.2
20260502213503 55 139 4.0 10.0 0.00 0.00 0.00 25 1036.3
20260502213003 55 132 5.0 13.0 0.00 0.00 0.00 24 1036.4
20260502212720 55 122 6.0 13.0 0.00 0.00 0.00 23 1036.4
20260502212218 55 141 5.0 10.0 0.00 0.00 0.00 25 1036.4
20260502211721 54 162 4.0 8.0 0.00 0.00 0.00 25 1036.4
20260502211003 54 165 4.0 9.0 0.00 0.00 0.00 25 1036.7
20260502210503 54 219 4.0 9.0 0.00 0.00 0.00 25 1036.7
20260502210003 54 219 4.0 8.0 0.00 0.00 0.00 26 1036.8
20260502205718 54 200 4.0 11.0 0.00 0.00 0.00 25 1036.8
20260502205003 54 179 3.0 11.0 0.00 0.00 0.00 26 1036.8
20260502204503 53 194 3.0 8.0 0.00 0.00 0.00 28 1036.8
20260502204003 52 240 4.0 10.0 0.00 0.00 0.00 26 1036.9
20260502203504 52 233 5.0 11.0 0.00 0.00 0.00 28 1036.9
20260502203003 53 207 5.0 12.0 0.00 0.00 0.00 25 1036.9
20260502202503 52 238 4.0 12.0 0.00 0.01 0.00 29 1037.0
20260502202003 52 189 5.0 13.0 0.00 0.01 0.00 29 1037.0
20260502201721 52 182 4.0 13.0 0.00 0.01 0.00 28 1037.0
20260502201003 52 296 5.0 10.0 0.00 0.02 0.00 28 1037.0
20260502200717 52 295 5.0 10.0 0.00 0.02 0.00 29 1037.0